#Datum;Uhrzeit;WR;Pac;DaySum;Status;WR;Pac;DaySum;Status;Pdc1;Udc;Temp;WR;Pac;DaySum;Status;Pdc1;Udc;Temp;WR;Pac;DaySum;Status;Pdc1;Udc;Temp;WR;Pac;DaySum;Status;Pdc1;Pdc2;Udc1;Udc2;Temp;WR;Pac;DaySum;Status;Pdc1;Pdc2;Udc1;Udc2;Temp;WR;Pac;DaySum;Status;Pdc1;Udc;Temp;WR;Pac;DaySum;Status;Pdc1;Udc;Temp;WR;Pac;DaySum;Status;Pdc1;Udc;Temp
27.11.18;23:55:00;1;266;12180;0;2;0;14;0;0;0;0;3;0;5;0;0;0;0;4;0;0;0;0;0;0;5;0;94;0;0;0;0;0;0;6;0;0;0;0;0;0;0;0;7;0;1078;0;0;0;0;8;0;7;0;0;0;0;9;0;599;0;0;0;0
27.11.18;23:50:00;1;270;12158;0;2;0;14;0;0;0;0;3;0;5;0;0;0;0;4;0;0;0;0;0;0;5;0;94;0;0;0;0;0;0;6;0;0;0;0;0;0;0;0;7;0;1078;0;0;0;0;8;0;7;0;0;0;0;9;0;599;0;0;0;0
27.11.18;23:45:00;1;260;12135;0;2;0;14;0;0;0;0;3;0;5;0;0;0;0;4;0;0;0;0;0;0;5;0;94;0;0;0;0;0;0;6;0;0;0;0;0;0;0;0;7;0;1078;0;0;0;0;8;0;7;0;0;0;0;9;0;599;0;0;0;0
27.11.18;23:40:00;1;225;12116;0;2;0;14;0;0;0;0;3;0;5;0;0;0;0;4;0;0;0;0;0;0;5;0;94;0;0;0;0;0;0;6;0;0;0;0;0;0;0;0;7;0;1078;0;0;0;0;8;0;7;0;0;0;0;9;0;599;0;0;0;0
27.11.18;23:35:00;1;228;12097;0;2;0;14;0;0;0;0;3;0;5;0;0;0;0;4;0;0;0;0;0;0;5;0;94;0;0;0;0;0;0;6;0;0;0;0;0;0;0;0;7;0;1078;0;0;0;0;8;0;7;0;0;0;0;9;0;599;0;0;0;0
27.11.18;23:30:00;1;228;12078;0;2;0;14;0;0;0;0;3;0;5;0;0;0;0;4;0;0;0;0;0;0;5;0;94;0;0;0;0;0;0;6;0;0;0;0;0;0;0;0;7;0;1078;0;0;0;0;8;0;7;0;0;0;0;9;0;599;0;0;0;0
27.11.18;23:25:00;1;229;12059;0;2;0;14;0;0;0;0;3;0;5;0;0;0;0;4;0;0;0;0;0;0;5;0;94;0;0;0;0;0;0;6;0;0;0;0;0;0;0;0;7;0;1078;0;0;0;0;8;0;7;0;0;0;0;9;0;599;0;0;0;0
27.11.18;23:20:00;1;278;12040;0;2;0;14;0;0;0;0;3;0;5;0;0;0;0;4;0;0;0;0;0;0;5;0;94;0;0;0;0;0;0;6;0;0;0;0;0;0;0;0;7;0;1078;0;0;0;0;8;0;7;0;0;0;0;9;0;599;0;0;0;0
27.11.18;23:15:00;1;311;12016;0;2;0;14;0;0;0;0;3;0;5;0;0;0;0;4;0;0;0;0;0;0;5;0;94;0;0;0;0;0;0;6;0;0;0;0;0;0;0;0;7;0;1078;0;0;0;0;8;0;7;0;0;0;0;9;0;599;0;0;0;0
27.11.18;23:10:00;1;362;11990;0;2;0;14;0;0;0;0;3;0;5;0;0;0;0;4;0;0;0;0;0;0;5;0;94;0;0;0;0;0;0;6;0;0;0;0;0;0;0;0;7;0;1078;0;0;0;0;8;0;7;0;0;0;0;9;0;599;0;0;0;0
27.11.18;23:05:00;1;448;11959;0;2;0;14;0;0;0;0;3;0;5;0;0;0;0;4;0;0;0;0;0;0;5;0;94;0;0;0;0;0;0;6;0;0;0;0;0;0;0;0;7;0;1078;0;0;0;0;8;0;7;0;0;0;0;9;0;599;0;0;0;0
27.11.18;23:00:00;1;490;11921;0;2;0;14;0;0;0;0;3;0;5;0;0;0;0;4;0;0;0;0;0;0;5;0;94;0;0;0;0;0;0;6;0;0;0;0;0;0;0;0;7;0;1078;0;0;0;0;8;0;7;0;0;0;0;9;0;599;0;0;0;0
27.11.18;22:55:00;1;489;11880;0;2;0;14;0;0;0;0;3;0;5;0;0;0;0;4;0;0;0;0;0;0;5;0;94;2;0;0;0;0;0;6;0;0;2;0;0;0;0;0;7;0;1078;0;0;0;0;8;0;7;0;0;0;0;9;0;599;0;0;0;0
27.11.18;22:50:00;1;489;11839;0;2;0;14;0;0;0;0;3;0;5;0;0;0;0;4;0;0;0;0;0;0;5;0;94;2;0;0;0;0;0;6;0;0;2;0;0;0;0;0;7;0;1078;0;0;0;0;8;0;7;0;0;0;0;9;0;599;0;0;0;0
27.11.18;22:45:00;1;469;11798;0;2;0;14;0;0;0;0;3;0;5;0;0;0;0;4;0;0;0;0;0;0;5;0;94;2;0;0;0;0;0;6;0;0;2;0;0;0;0;0;7;0;1078;0;0;0;0;8;0;7;0;0;0;0;9;0;599;0;0;0;0
27.11.18;22:40:00;1;565;11756;0;2;0;14;0;0;0;0;3;0;5;0;0;0;0;4;0;0;0;0;0;0;5;0;94;2;0;0;0;0;0;6;0;0;2;0;0;0;0;0;7;0;1078;0;0;0;0;8;0;7;0;0;0;0;9;0;599;0;0;0;0
27.11.18;22:35:00;1;564;11709;0;2;0;14;0;0;0;0;3;0;5;0;0;0;0;4;0;0;0;0;0;0;5;0;94;2;0;0;0;0;0;6;0;0;2;0;0;0;0;0;7;0;1078;0;0;0;0;8;0;7;0;0;0;0;9;0;599;0;0;0;0
27.11.18;22:30:00;1;544;11662;0;2;0;14;0;0;0;0;3;0;5;0;0;0;0;4;0;0;0;0;0;0;5;0;94;2;0;0;0;0;0;6;0;0;2;0;0;0;0;0;7;0;1078;0;0;0;0;8;0;7;0;0;0;0;9;0;599;0;0;0;0
27.11.18;22:25:00;1;577;11616;0;2;0;14;0;0;0;0;3;0;5;0;0;0;0;4;0;0;0;0;0;0;5;0;94;2;0;0;0;0;0;6;0;0;2;0;0;0;0;0;7;0;1078;0;0;0;0;8;0;7;0;0;0;0;9;0;599;0;0;0;0
27.11.18;22:20:00;1;518;11570;0;2;0;14;0;0;0;0;3;0;5;0;0;0;0;4;0;0;0;0;0;0;5;0;94;2;0;0;0;0;0;6;0;0;2;0;0;0;0;0;7;0;1078;0;0;0;0;8;0;7;0;0;0;0;9;0;599;0;0;0;0
27.11.18;22:15:00;1;533;11527;0;2;0;14;0;0;0;0;3;0;5;0;0;0;0;4;0;0;0;0;0;0;5;0;94;2;0;0;0;0;0;6;0;0;2;0;0;0;0;0;7;0;1078;0;0;0;0;8;0;7;0;0;0;0;9;0;599;0;0;0;0
27.11.18;22:10:00;1;600;11482;0;2;0;14;0;0;0;0;3;0;5;0;0;0;0;4;0;0;0;0;0;0;5;0;94;2;0;0;0;0;0;6;0;0;2;0;0;0;0;0;7;0;1078;0;0;0;0;8;0;7;0;0;0;0;9;0;599;0;0;0;0
27.11.18;22:05:00;1;493;11432;0;2;0;14;0;0;0;0;3;0;5;0;0;0;0;4;0;0;0;0;0;0;5;0;94;2;0;0;0;0;0;6;0;0;2;0;0;0;0;0;7;0;1078;0;0;0;0;8;0;7;0;0;0;0;9;0;599;0;0;0;0
27.11.18;22:00:00;1;520;11391;0;2;0;14;0;0;0;0;3;0;5;0;0;0;0;4;0;0;0;0;0;0;5;0;94;2;0;0;0;0;0;6;0;0;2;0;0;0;0;0;7;0;1078;0;0;0;0;8;0;7;0;0;0;0;9;0;599;0;0;0;0
27.11.18;21:55:00;1;514;11347;0;2;0;14;0;0;0;0;3;0;5;0;0;0;0;4;0;0;0;0;0;0;5;0;94;2;0;0;0;0;0;6;0;0;2;0;0;0;0;0;7;0;1078;0;0;0;0;8;0;7;0;0;0;0;9;0;599;0;0;0;0
27.11.18;21:50:00;1;570;11305;0;2;0;14;0;0;0;0;3;0;5;0;0;0;0;4;0;0;0;0;0;0;5;0;94;2;0;0;0;0;0;6;0;0;2;0;0;0;0;0;7;0;1078;0;0;0;0;8;0;7;0;0;0;0;9;0;599;0;0;0;0
27.11.18;21:45:00;1;603;11256;0;2;0;14;0;0;0;0;3;0;5;0;0;0;0;4;0;0;0;0;0;0;5;0;94;2;0;0;0;0;0;6;0;0;2;0;0;0;0;0;7;0;1078;0;0;0;0;8;0;7;0;0;0;0;9;0;599;0;0;0;0
27.11.18;21:40:00;1;697;11206;0;2;0;14;0;0;0;0;3;0;5;0;0;0;0;4;0;0;0;0;0;0;5;0;94;2;0;0;0;0;0;6;0;0;2;0;0;0;0;0;7;0;1078;0;0;0;0;8;0;7;0;0;0;0;9;0;599;0;0;0;0
27.11.18;21:35:00;1;730;11145;0;2;0;14;0;0;0;0;3;0;5;0;0;0;0;4;0;0;0;0;0;0;5;0;94;2;0;0;0;0;0;6;0;0;2;0;0;0;0;0;7;0;1078;0;0;0;0;8;0;7;0;0;0;0;9;0;599;0;0;0;0
27.11.18;21:30:00;1;726;11085;0;2;0;14;0;0;0;0;3;0;5;0;0;0;0;4;0;0;0;0;0;0;5;0;94;2;0;0;0;0;0;6;0;0;2;0;0;0;0;0;7;0;1078;0;0;0;0;8;0;7;0;0;0;0;9;0;599;0;0;0;0
27.11.18;21:25:00;1;957;11024;0;2;0;14;0;0;0;0;3;0;5;0;0;0;0;4;0;0;0;0;0;0;5;0;94;2;0;0;0;0;0;6;0;0;2;0;0;0;0;0;7;0;1078;0;0;0;0;8;0;7;0;0;0;0;9;0;599;0;0;0;0
27.11.18;21:20:00;1;1086;10912;0;2;0;14;0;0;0;0;3;0;5;0;0;0;0;4;0;0;0;0;0;0;5;0;94;2;0;0;0;0;0;6;0;0;2;0;0;0;0;0;7;0;1078;0;0;0;0;8;0;7;0;0;0;0;9;0;599;0;0;0;0
27.11.18;21:15:00;1;636;10829;0;2;0;14;0;0;0;0;3;0;5;0;0;0;0;4;0;0;0;0;0;0;5;0;94;2;0;0;0;0;0;6;0;0;2;0;0;0;0;0;7;0;1078;0;0;0;0;8;0;7;0;0;0;0;9;0;599;0;0;0;0
27.11.18;21:10:00;1;618;10776;0;2;0;14;0;0;0;0;3;0;5;0;0;0;0;4;0;0;0;0;0;0;5;0;94;2;0;0;0;0;0;6;0;0;2;0;0;0;0;0;7;0;1078;0;0;0;0;8;0;7;0;0;0;0;9;0;599;0;0;0;0
27.11.18;21:05:00;1;613;10725;0;2;0;14;0;0;0;0;3;0;5;0;0;0;0;4;0;0;0;0;0;0;5;0;94;2;0;0;0;0;0;6;0;0;2;0;0;0;0;0;7;0;1078;0;0;0;0;8;0;7;0;0;0;0;9;0;599;0;0;0;0
27.11.18;21:00:00;1;631;10672;0;2;0;14;0;0;0;0;3;0;5;0;0;0;0;4;0;0;0;0;0;0;5;0;94;2;0;0;0;0;0;6;0;0;2;0;0;0;0;0;7;0;1078;0;0;0;0;8;0;7;0;0;0;0;9;0;599;0;0;0;0
27.11.18;20:55:00;1;650;10619;0;2;0;14;0;0;0;0;3;0;5;0;0;0;0;4;0;0;0;0;0;0;5;0;94;2;0;0;0;0;0;6;0;0;2;0;0;0;0;0;7;0;1078;0;0;0;0;8;0;7;0;0;0;0;9;0;599;0;0;0;0
27.11.18;20:50:00;1;647;10565;0;2;0;14;0;0;0;0;3;0;5;0;0;0;0;4;0;0;0;0;0;0;5;0;94;2;0;0;0;0;0;6;0;0;2;0;0;0;0;0;7;0;1078;0;0;0;0;8;0;7;0;0;0;0;9;0;599;0;0;0;0
27.11.18;20:45:00;1;641;10510;0;2;0;14;0;0;0;0;3;0;5;0;0;0;0;4;0;0;0;0;0;0;5;0;94;2;0;0;0;0;0;6;0;0;2;0;0;0;0;0;7;0;1078;0;0;0;0;8;0;7;0;0;0;0;9;0;599;0;0;0;0
27.11.18;20:40:00;1;645;10456;0;2;0;14;0;0;0;0;3;0;5;0;0;0;0;4;0;0;0;0;0;0;5;0;94;2;0;0;0;0;0;6;0;0;2;0;0;0;0;0;7;0;1078;0;0;0;0;8;0;7;0;0;0;0;9;0;599;0;0;0;0
27.11.18;20:35:00;1;665;10403;0;2;0;14;0;0;0;0;3;0;5;0;0;0;0;4;0;0;0;0;0;0;5;0;94;2;0;0;0;0;0;6;0;0;2;0;0;0;0;0;7;0;1078;0;0;0;0;8;0;7;0;0;0;0;9;0;599;0;0;0;0
27.11.18;20:30:00;1;685;10347;0;2;0;14;0;0;0;0;3;0;5;0;0;0;0;4;0;0;0;0;0;0;5;0;94;2;0;0;0;0;0;6;0;0;2;0;0;0;0;0;7;0;1078;0;0;0;0;8;0;7;0;0;0;0;9;0;599;0;0;0;0
27.11.18;20:25:00;1;935;10289;0;2;0;14;0;0;0;0;3;0;5;0;0;0;0;4;0;0;0;0;0;0;5;0;94;2;0;0;0;0;0;6;0;0;2;0;0;0;0;0;7;0;1078;0;0;0;0;8;0;7;0;0;0;0;9;0;599;0;0;0;0
27.11.18;20:20:00;1;875;10210;0;2;0;14;0;0;0;0;3;0;5;0;0;0;0;4;0;0;0;0;0;0;5;0;94;2;0;0;0;0;0;6;0;0;2;0;0;0;0;0;7;0;1078;0;0;0;0;8;0;7;0;0;0;0;9;0;599;0;0;0;0
27.11.18;20:15:00;1;845;10139;0;2;0;14;0;0;0;0;3;0;5;0;0;0;0;4;0;0;0;0;0;0;5;0;94;2;0;0;0;0;0;6;0;0;2;0;0;0;0;0;7;0;1078;0;0;0;0;8;0;7;0;0;0;0;9;0;599;0;0;0;0
27.11.18;20:10:00;1;809;10068;0;2;0;14;0;0;0;0;3;0;5;0;0;0;0;4;0;0;0;0;0;0;5;0;94;2;0;0;0;0;0;6;0;0;2;0;0;0;0;0;7;0;1078;0;0;0;0;8;0;7;0;0;0;0;9;0;599;0;0;0;0
27.11.18;20:05:00;1;801;10000;0;2;0;14;0;0;0;0;3;0;5;0;0;0;0;4;0;0;0;0;0;0;5;0;94;2;0;0;0;0;0;6;0;0;2;0;0;0;0;0;7;0;1078;0;0;0;0;8;0;7;0;0;0;0;9;0;599;0;0;0;0
27.11.18;20:00:00;1;788;9934;0;2;0;14;0;0;0;0;3;0;5;0;0;0;0;4;0;0;0;0;0;0;5;0;94;2;0;0;0;0;0;6;0;0;2;0;0;0;0;0;7;0;1078;0;0;0;0;8;0;7;0;0;0;0;9;0;599;0;0;0;0
27.11.18;19:55:00;1;827;9869;0;2;0;14;0;0;0;0;3;0;5;0;0;0;0;4;0;0;0;0;0;0;5;0;94;2;0;0;0;0;0;6;0;0;2;0;0;0;0;0;7;0;1078;0;0;0;0;8;0;7;0;0;0;0;9;0;599;0;0;0;0
27.11.18;19:50:00;1;825;9802;0;2;0;14;0;0;0;0;3;0;5;0;0;0;0;4;0;0;0;0;0;0;5;0;94;2;0;0;0;0;0;6;0;0;2;0;0;0;0;0;7;0;1078;0;0;0;0;8;0;7;0;0;0;0;9;0;599;0;0;0;0
27.11.18;19:45:00;1;767;9735;0;2;0;14;0;0;0;0;3;0;5;0;0;0;0;4;0;0;0;0;0;0;5;0;94;2;0;0;0;0;0;6;0;0;2;0;0;0;0;0;7;0;1078;0;0;0;0;8;0;7;0;0;0;0;9;0;599;0;0;0;0
27.11.18;19:40:00;1;794;9673;0;2;0;14;0;0;0;0;3;0;5;0;0;0;0;4;0;0;0;0;0;0;5;0;94;2;0;0;0;0;0;6;0;0;2;0;0;0;0;0;7;0;1078;0;0;0;0;8;0;7;0;0;0;0;9;0;599;0;0;0;0
27.11.18;19:35:00;1;778;9606;0;2;0;14;0;0;0;0;3;0;5;0;0;0;0;4;0;0;0;0;0;0;5;0;94;2;0;0;0;0;0;6;0;0;2;0;0;0;0;0;7;0;1078;0;0;0;0;8;0;7;0;0;0;0;9;0;599;0;0;0;0
27.11.18;19:30:00;1;753;9544;0;2;0;14;0;0;0;0;3;0;5;0;0;0;0;4;0;0;0;0;0;0;5;0;94;2;0;0;0;0;0;6;0;0;2;0;0;0;0;0;7;0;1078;0;0;0;0;8;0;7;0;0;0;0;9;0;599;0;0;0;0
27.11.18;19:25:00;1;742;9482;0;2;0;14;0;0;0;0;3;0;5;0;0;0;0;4;0;0;0;0;0;0;5;0;94;2;0;0;0;0;0;6;0;0;2;0;0;0;0;0;7;0;1078;0;0;0;0;8;0;7;0;0;0;0;9;0;599;0;0;0;0
27.11.18;19:20:00;1;776;9421;0;2;0;14;0;0;0;0;3;0;5;0;0;0;0;4;0;0;0;0;0;0;5;0;94;2;0;0;0;0;0;6;0;0;2;0;0;0;0;0;7;0;1078;0;0;0;0;8;0;7;0;0;0;0;9;0;599;0;0;0;0
27.11.18;19:15:00;1;1151;9356;0;2;0;14;0;0;0;0;3;0;5;0;0;0;0;4;0;0;0;0;0;0;5;0;94;2;0;0;0;0;0;6;0;0;2;0;0;0;0;0;7;0;1078;0;0;0;0;8;0;7;0;0;0;0;9;0;599;0;0;0;0
27.11.18;19:10:00;1;2925;9236;0;2;0;14;0;0;0;0;3;0;5;0;0;0;0;4;0;0;0;0;0;0;5;0;94;2;0;0;0;0;0;6;0;0;2;0;0;0;0;0;7;0;1078;0;0;0;0;8;0;7;0;0;0;0;9;0;599;0;0;0;0
27.11.18;19:05:00;1;3134;8977;0;2;0;14;0;0;0;0;3;0;5;0;0;0;0;4;0;0;0;0;0;0;5;0;94;2;0;0;0;0;0;6;0;0;2;0;0;0;0;0;7;0;1078;0;0;0;0;8;0;7;0;0;0;0;9;0;599;0;0;0;0
27.11.18;19:00:00;1;2688;8721;0;2;0;14;0;0;0;0;3;0;5;0;0;0;0;4;0;0;0;0;0;0;5;0;94;2;0;0;0;0;0;6;0;0;2;0;0;0;0;0;7;0;1078;0;0;0;0;8;0;7;0;0;0;0;9;0;599;0;0;0;0
27.11.18;18:55:00;1;1657;8484;0;2;0;14;0;0;0;0;3;0;5;0;0;0;0;4;0;0;0;0;0;0;5;0;94;2;0;0;0;0;0;6;0;0;2;0;0;0;0;0;7;0;1078;0;0;0;0;8;0;7;0;0;0;0;9;0;599;0;0;0;0
27.11.18;18:50:00;1;651;8365;0;2;0;14;0;0;0;0;3;0;5;0;0;0;0;4;0;0;0;0;0;0;5;0;94;2;0;0;0;0;0;6;0;0;2;0;0;0;0;0;7;0;1078;0;0;0;0;8;0;7;0;0;0;0;9;0;599;0;0;0;0
27.11.18;18:45:00;1;813;8312;0;2;0;14;0;0;0;0;3;0;5;0;0;0;0;4;0;0;0;0;0;0;5;0;94;2;0;0;0;0;0;6;0;0;2;0;0;0;0;0;7;0;1078;0;0;0;0;8;0;7;0;0;0;0;9;0;599;0;0;0;0
27.11.18;18:40:00;1;727;8245;0;2;0;14;0;0;0;0;3;0;5;0;0;0;0;4;0;0;0;0;0;0;5;0;94;2;0;0;0;0;0;6;0;0;2;0;0;0;0;0;7;0;1078;0;0;0;0;8;0;7;0;0;0;0;9;0;599;0;0;0;0
27.11.18;18:35:00;1;764;8183;0;2;0;14;0;0;0;0;3;0;5;0;0;0;0;4;0;0;0;0;0;0;5;0;94;2;0;0;0;0;0;6;0;0;2;0;0;0;0;0;7;0;1078;0;0;0;0;8;0;7;0;0;0;0;9;0;599;0;0;0;0
27.11.18;18:30:00;1;747;8119;0;2;0;14;0;0;0;0;3;0;5;0;0;0;0;4;0;0;0;0;0;0;5;0;94;2;0;0;0;0;0;6;0;0;2;0;0;0;0;0;7;0;1078;0;0;0;0;8;0;7;0;0;0;0;9;0;599;0;0;0;0
27.11.18;18:25:00;1;753;8058;0;2;0;14;0;0;0;0;3;0;5;0;0;0;0;4;0;0;0;0;0;0;5;0;94;2;0;0;0;0;0;6;0;0;2;0;0;0;0;0;7;0;1078;0;0;0;0;8;0;7;0;0;0;0;9;0;599;0;0;0;0
27.11.18;18:20:00;1;842;7996;0;2;0;14;0;0;0;0;3;0;5;0;0;0;0;4;0;0;0;0;0;0;5;0;94;2;0;0;0;0;0;6;0;0;2;0;0;0;0;0;7;0;1078;0;0;0;0;8;0;7;0;0;0;0;9;0;599;0;0;0;0
27.11.18;18:15:00;1;526;7941;0;2;0;14;0;0;0;0;3;0;5;0;0;0;0;4;0;0;0;0;0;0;5;0;94;2;0;0;0;0;0;6;0;0;2;0;0;0;0;0;7;0;1078;0;0;0;0;8;0;7;0;0;0;0;9;0;599;0;0;0;0
27.11.18;18:10:00;1;513;7896;0;2;0;14;0;0;0;0;3;0;5;0;0;0;0;4;0;0;0;0;0;0;5;0;94;2;0;0;0;0;0;6;0;0;2;0;0;0;0;0;7;0;1078;0;0;0;0;8;0;7;0;0;0;0;9;0;599;0;0;0;0
27.11.18;18:05:00;1;427;7853;0;2;0;14;0;0;0;0;3;0;5;0;0;0;0;4;0;0;0;0;0;0;5;0;94;2;0;0;0;0;0;6;0;0;2;0;0;0;0;0;7;0;1078;0;0;0;0;8;0;7;0;0;0;0;9;0;599;0;0;0;0
27.11.18;18:00:00;1;475;7816;0;2;0;14;0;0;0;0;3;0;5;0;0;0;0;4;0;0;0;0;0;0;5;0;94;2;0;0;0;0;0;6;0;0;2;0;0;0;0;0;7;0;1078;0;0;0;0;8;0;7;0;0;0;0;9;0;599;0;0;0;0
27.11.18;17:55:00;1;470;7777;0;2;0;14;0;0;0;0;3;0;5;0;0;0;0;4;0;0;0;0;0;0;5;0;94;2;0;0;0;0;0;6;0;0;2;0;0;0;0;0;7;0;1078;0;0;0;0;8;0;7;0;0;0;0;9;0;599;0;0;0;0
27.11.18;17:50:00;1;525;7736;0;2;0;14;0;0;0;0;3;0;5;0;0;0;0;4;0;0;0;0;0;0;5;0;94;2;0;0;0;0;0;6;0;0;2;0;0;0;0;0;7;0;1078;0;0;0;0;8;0;7;0;0;0;0;9;0;599;0;0;0;0
27.11.18;17:45:00;1;1457;7692;0;2;0;14;0;0;0;0;3;0;5;0;0;0;0;4;0;0;0;0;0;0;5;0;94;2;0;0;0;0;0;6;0;0;2;0;0;0;0;0;7;0;1078;0;0;0;0;8;0;7;0;0;0;0;9;0;599;0;0;0;0
27.11.18;17:40:00;1;2137;7530;0;2;0;14;0;0;0;0;3;0;5;0;0;0;0;4;0;0;0;0;0;0;5;0;94;2;0;0;0;0;0;6;0;0;2;0;0;0;0;0;7;0;1078;0;0;0;0;8;0;7;0;0;0;0;9;0;599;0;0;0;0
27.11.18;17:35:00;1;3451;7373;0;2;0;14;0;0;0;0;3;0;5;0;0;0;0;4;0;0;0;0;0;0;5;0;94;2;0;0;0;0;0;6;0;0;2;0;0;0;0;0;7;0;1078;0;0;0;0;8;0;7;0;0;0;0;9;0;599;0;0;0;0
27.11.18;17:30:00;1;4398;7060;0;2;0;14;0;0;0;0;3;0;5;0;0;0;0;4;0;0;0;0;0;0;5;0;94;2;0;0;0;0;0;6;0;0;2;0;0;0;0;0;7;0;1078;0;0;0;0;8;0;7;0;0;0;0;9;0;599;0;0;0;0
27.11.18;17:25:00;1;4508;6693;0;2;0;14;0;0;0;0;3;0;5;0;0;0;0;4;0;0;0;0;0;0;5;0;94;2;0;0;0;0;0;6;0;0;2;0;0;0;0;0;7;0;1078;0;0;0;0;8;0;7;0;0;0;0;9;0;599;0;0;0;0
27.11.18;17:20:00;1;4445;6320;0;2;0;14;0;0;0;0;3;0;5;0;0;0;0;4;0;0;0;0;0;0;5;0;94;2;0;0;0;0;0;6;0;0;2;0;0;0;0;0;7;0;1078;0;0;0;0;8;0;7;0;0;0;0;9;0;599;0;0;0;0
27.11.18;17:15:00;1;1456;5982;0;2;0;14;0;0;0;0;3;0;5;0;0;0;0;4;0;0;0;0;0;0;5;0;94;2;0;0;0;0;0;6;0;0;2;0;0;0;0;0;7;0;1078;0;0;0;0;8;0;7;0;0;0;0;9;0;599;0;0;0;0
27.11.18;17:10:00;1;2637;5868;0;2;0;14;0;0;0;0;3;0;5;0;0;0;0;4;0;0;0;0;0;0;5;0;94;2;0;0;0;0;0;6;0;0;2;0;0;0;0;0;7;0;1078;0;0;0;0;8;0;7;0;0;0;0;9;0;599;0;0;0;0
27.11.18;17:05:00;1;2533;5649;0;2;0;14;0;0;0;0;3;0;5;0;0;0;0;4;0;0;0;0;0;0;5;0;94;2;0;0;0;0;0;6;0;0;2;0;0;0;0;0;7;0;1078;0;0;0;0;8;0;7;0;0;0;0;9;0;599;0;0;0;0
27.11.18;17:00:00;1;2563;5433;0;2;0;14;0;0;0;0;3;0;5;0;0;0;0;4;0;0;0;0;0;0;5;0;94;2;0;0;0;0;0;6;0;0;2;0;0;0;0;0;7;0;1078;0;0;0;0;8;0;7;0;0;0;0;9;0;599;0;0;0;0
27.11.18;16:55:00;1;3267;5219;0;2;0;14;0;0;0;0;3;0;5;0;0;0;0;4;0;0;0;0;0;0;5;0;94;2;0;0;0;0;0;6;0;0;2;0;0;0;0;0;7;0;1078;0;0;0;0;8;0;7;0;0;0;0;9;0;599;0;0;0;0
27.11.18;16:50:00;1;2554;5003;0;2;0;14;0;0;0;0;3;0;5;0;0;0;0;4;0;0;0;0;0;0;5;0;94;2;0;0;0;0;0;6;0;0;2;0;0;0;0;0;7;0;1078;0;0;0;0;8;0;7;0;0;0;0;9;0;599;0;0;0;0
27.11.18;16:45:00;1;1396;4788;0;2;0;14;0;0;0;0;3;0;5;0;0;0;0;4;0;0;0;0;0;0;5;0;94;2;0;0;0;0;0;6;0;0;2;0;0;0;0;0;7;0;1078;0;0;0;0;8;0;7;0;0;0;0;9;0;599;0;0;0;0
27.11.18;16:40:00;1;600;4689;0;2;0;14;0;0;0;0;3;0;5;0;0;0;0;4;0;0;0;0;0;0;5;0;94;2;0;0;0;0;0;6;0;0;2;0;0;0;0;0;7;0;1078;0;0;0;0;8;0;7;0;0;0;0;9;0;599;0;0;0;0
27.11.18;16:35:00;1;684;4638;0;2;0;14;0;0;0;0;3;0;5;0;0;0;0;4;0;0;0;0;0;0;5;0;94;2;0;0;0;0;0;6;0;0;2;0;0;0;0;0;7;0;1078;0;0;0;0;8;0;7;0;0;0;0;9;0;599;0;0;0;0
27.11.18;16:30:00;1;691;4581;0;2;0;14;0;0;0;0;3;0;5;0;0;0;0;4;0;0;0;0;0;0;5;0;94;2;0;0;0;0;0;6;0;0;2;0;0;0;0;0;7;0;1078;0;0;0;0;8;0;7;0;0;0;0;9;0;599;0;0;0;0
27.11.18;16:25:00;1;588;4523;0;2;0;14;0;0;83;2;3;0;5;0;0;0;0;4;0;0;0;0;0;0;5;0;94;2;0;0;0;0;0;6;0;0;2;0;0;0;0;0;7;0;1078;0;0;0;0;8;0;7;0;0;0;0;9;0;599;0;0;0;0
27.11.18;16:20:00;1;532;4464;0;2;0;14;6;0;279;8;3;0;5;0;0;0;0;4;0;0;0;0;19;1;5;0;94;2;0;0;0;0;0;6;0;0;2;0;0;0;0;0;7;0;1078;0;0;0;0;8;0;7;0;0;0;0;9;0;599;0;0;0;0
27.11.18;16:15:00;1;2250;4420;0;2;0;14;6;0;306;8;3;0;5;0;0;154;7;4;0;0;2;0;85;4;5;0;94;2;0;0;0;0;0;6;0;0;2;0;0;0;0;0;7;0;1078;0;0;211;10;8;0;7;0;0;49;2;9;0;599;0;0;157;5
27.11.18;16:10:00;1;2413;4221;0;2;0;14;6;0;344;8;3;0;5;6;0;291;12;4;0;0;1;0;120;5;5;0;94;2;0;0;0;0;0;6;0;0;2;0;0;0;0;0;7;0;1078;6;0;342;13;8;0;7;6;0;294;11;9;0;599;6;0;317;9
27.11.18;16:05:00;1;888;4020;0;2;0;14;6;0;369;8;3;0;5;6;0;301;12;4;0;0;1;0;143;5;5;0;94;2;0;0;0;0;0;6;0;0;2;0;0;0;0;0;7;0;1078;6;0;399;14;8;0;7;6;0;344;11;9;0;599;6;0;149;3
27.11.18;16:00:00;1;255;3996;0;2;0;14;6;0;383;8;3;0;5;6;0;327;12;4;0;0;1;0;157;5;5;0;94;2;0;0;0;0;0;6;0;0;2;0;0;0;0;0;7;0;1078;6;0;439;14;8;0;7;6;0;380;11;9;0;599;6;0;402;9
27.11.18;15:55:00;1;256;3975;0;2;0;14;6;0;399;8;3;0;5;6;0;387;12;4;0;0;1;0;173;5;5;0;94;2;0;0;0;0;0;6;0;0;1;0;0;0;0;4;7;0;1078;4;2;454;14;8;0;7;6;0;414;11;9;1;599;6;1;418;9
27.11.18;15:50:00;1;259;3954;0;2;0;14;6;0;403;8;3;0;5;6;0;413;12;4;0;0;1;0;186;5;5;0;94;2;2;5;13;13;2;6;0;0;1;0;0;0;0;2;7;4;1078;3;11;461;14;8;0;7;6;0;429;11;9;1;599;6;1;478;9
27.11.18;15:45:00;1;214;3932;0;2;0;14;6;0;403;9;3;0;5;6;0;406;12;4;0;0;1;0;189;5;5;0;94;2;0;0;0;0;0;6;0;0;1;2;1;36;34;10;7;2;1078;6;17;453;14;8;0;7;4;0;431;11;9;0;599;6;0;483;9
27.11.18;15:40:00;1;214;3914;0;2;0;14;6;0;405;9;3;0;5;6;0;416;12;4;0;0;1;0;192;5;5;0;94;1;0;2;121;119;10;6;0;0;0;6;2;291;143;12;7;4;1077;6;9;487;14;8;0;7;3;0;414;11;9;0;599;6;1;489;10
27.11.18;15:35:00;1;214;3896;0;2;0;14;6;2;401;9;3;0;5;6;0;435;12;4;0;0;1;0;205;5;5;0;94;1;0;1;339;337;17;6;0;0;23;5;4;241;465;15;7;35;1077;6;45;418;15;8;0;7;6;2;424;11;9;1;599;6;2;502;10
27.11.18;15:30:00;1;215;3878;0;2;1;14;6;2;422;9;3;0;5;6;4;443;12;4;0;0;1;0;202;5;5;0;94;26;0;1;415;460;17;6;0;0;23;5;5;181;569;15;7;75;1074;4;95;391;15;8;0;7;6;2;454;11;9;2;599;4;6;490;10
27.11.18;15:25:00;1;215;3860;0;2;1;14;6;2;422;9;3;0;5;6;1;467;12;4;0;0;1;0;216;5;5;0;94;23;0;1;414;448;17;6;0;0;23;6;4;509;258;15;7;66;1068;4;98;407;15;8;0;7;6;2;457;11;9;2;598;6;3;522;10
27.11.18;15:20:00;1;215;3842;0;2;1;14;6;1;424;9;3;0;5;6;1;478;12;4;0;0;1;0;218;5;5;0;94;26;0;1;418;447;17;6;0;0;23;5;4;314;508;15;7;74;1062;4;104;385;15;8;0;7;6;1;454;11;9;2;598;6;7;502;10
27.11.18;15:15:00;1;215;3824;0;2;1;13;3;2;412;9;3;0;5;4;2;475;12;4;0;0;1;0;222;5;5;0;94;26;0;2;423;446;18;6;0;0;23;4;4;181;580;15;7;94;1056;4;117;356;15;8;0;7;6;0;488;11;9;0;598;6;4;531;10
27.11.18;15:10:00;1;231;3806;0;2;1;13;6;2;431;9;3;0;5;3;3;470;12;4;0;0;1;0;228;5;5;0;94;26;0;2;430;434;18;6;0;0;23;4;5;247;588;15;7;123;1048;4;146;367;15;8;1;7;4;3;456;11;9;34;598;6;49;424;10
27.11.18;15:05:00;1;231;3787;0;2;1;13;6;3;431;9;3;0;5;6;2;479;12;4;0;0;1;0;233;5;5;0;94;26;0;4;438;572;18;6;0;0;23;6;6;181;595;15;7;154;1038;4;179;411;15;8;1;7;6;2;480;11;9;62;595;4;83;361;10
27.11.18;15:00:00;1;254;3767;0;2;2;13;6;6;420;9;3;0;5;6;1;507;12;4;0;0;3;0;219;6;5;5;94;1;0;5;431;552;17;6;0;0;23;5;6;192;602;15;7;174;1025;4;203;420;15;8;1;7;6;5;465;11;9;75;590;4;97;358;10
27.11.18;14:55:00;1;256;3745;0;2;2;13;6;5;435;9;3;0;5;6;2;507;12;4;0;0;3;0;213;6;5;7;93;1;0;4;431;677;18;6;0;0;23;5;5;182;604;15;7;190;1011;4;226;430;15;8;2;6;6;3;487;11;9;87;584;4;110;359;10
27.11.18;14:50:00;1;259;3724;0;2;0;13;6;4;440;9;3;0;5;6;2;496;12;4;0;0;3;0;213;6;5;6;93;1;0;3;436;693;18;6;0;0;23;4;5;182;606;15;7;162;995;4;194;358;12;8;1;6;6;2;497;11;9;90;576;4;110;357;10
27.11.18;14:45:00;1;214;3702;0;2;1;13;4;5;437;9;3;0;5;6;0;538;12;4;0;0;3;0;217;5;5;12;92;1;0;2;427;663;18;6;0;0;23;4;3;540;267;15;7;206;979;4;235;453;15;8;0;6;6;2;493;11;9;90;569;4;114;356;10
27.11.18;14:40:00;1;214;3684;0;2;2;13;6;3;439;9;3;0;5;4;3;490;12;4;0;0;3;0;227;5;5;5;92;26;0;3;434;679;18;6;0;0;23;6;5;331;464;15;7;188;962;4;223;429;15;8;0;6;4;3;468;11;9;86;561;4;109;357;10
27.11.18;14:35:00;1;214;3666;0;2;2;12;6;4;435;9;3;0;5;6;2;507;12;4;0;0;3;0;231;5;5;6;91;26;0;3;432;666;18;6;0;0;23;4;3;484;351;15;7;189;946;4;216;423;15;8;4;6;3;4;463;11;9;83;554;4;104;361;10
27.11.18;14:30:00;1;241;3649;0;2;2;12;6;3;438;9;3;0;5;6;2;499;12;4;0;0;3;0;217;5;5;5;90;26;0;3;435;682;18;6;0;0;23;6;5;330;463;15;7;199;930;4;222;443;15;8;0;6;6;1;493;11;9;89;547;4;112;355;10
27.11.18;14:25:00;1;269;3628;0;2;2;12;6;4;434;9;3;1;5;6;2;507;12;4;0;0;3;0;215;5;5;0;90;26;0;1;447;707;18;6;0;0;23;5;5;182;606;15;7;210;913;4;243;446;15;8;2;6;6;6;462;11;9;101;540;4;124;358;10
27.11.18;14:20:00;1;270;3605;0;2;0;12;6;0;457;9;3;0;5;6;3;512;12;4;0;0;3;0;216;5;5;5;89;4;0;5;441;680;18;6;0;0;23;6;7;182;608;15;7;208;896;4;253;454;15;8;1;5;6;2;391;8;9;107;531;4;132;357;10
27.11.18;14:15:00;1;272;3583;0;2;0;12;4;4;436;9;3;0;5;6;3;514;12;4;0;0;3;0;225;5;5;4;89;4;0;2;440;692;18;6;0;0;23;8;8;182;609;15;7;214;879;4;251;450;15;8;0;5;6;2;495;11;9;110;522;4;134;356;10
27.11.18;14:10:00;1;272;3560;0;2;3;12;3;10;418;9;3;0;5;4;3;491;12;4;0;0;3;0;223;5;5;5;88;4;0;3;442;691;18;6;0;0;23;5;5;193;608;15;7;222;861;4;246;448;14;8;3;5;6;4;487;11;9;112;513;4;133;357;10
27.11.18;14:05:00;1;272;3537;0;2;2;11;6;4;436;9;3;2;5;3;4;479;12;4;0;0;3;0;225;5;5;5;87;4;0;1;437;682;18;6;0;0;23;4;5;182;602;15;7;193;843;4;223;431;14;8;2;5;3;4;460;11;9;98;504;4;121;357;10
27.11.18;14:00:00;1;316;3514;0;2;1;11;6;2;437;9;3;0;5;6;1;507;12;4;0;0;1;0;218;5;5;3;87;4;0;5;436;611;18;6;0;0;23;6;7;182;598;15;7;164;826;4;201;432;14;8;0;5;6;1;488;11;9;87;495;4;110;361;10
27.11.18;13:55:00;1;269;3487;0;2;3;11;6;7;415;9;3;0;5;6;4;465;12;4;0;0;1;0;223;5;5;5;87;1;0;4;425;507;18;6;0;0;23;6;6;181;594;15;7;153;813;4;183;390;14;8;0;5;6;4;451;11;9;79;488;4;102;361;10
27.11.18;13:50:00;1;254;3465;0;2;1;11;6;2;433;9;3;0;5;6;1;496;12;4;0;0;1;0;219;5;5;6;86;1;0;2;421;560;18;6;0;0;23;5;5;219;591;15;7;152;800;4;172;368;14;8;0;5;6;1;478;11;9;74;482;4;96;361;10
27.11.18;13:45:00;1;209;3444;0;2;1;11;4;3;428;9;3;0;5;6;2;495;12;4;0;0;1;0;220;5;5;0;86;26;0;1;439;641;18;6;0;0;23;4;4;182;591;15;7;146;787;4;175;372;14;8;0;5;6;2;375;8;9;75;475;4;99;357;10
27.11.18;13:40:00;1;208;3426;0;2;4;11;3;7;421;9;3;0;5;6;1;507;12;4;0;0;3;0;227;5;5;2;85;4;0;4;440;685;18;6;0;0;23;4;3;199;599;15;7;165;775;4;197;416;14;8;0;5;6;1;485;11;9;88;469;4;110;356;10
27.11.18;13:35:00;1;208;3409;0;2;1;10;6;10;417;9;3;1;5;3;3;482;12;4;0;0;1;0;204;5;5;7;85;4;0;1;434;691;18;6;0;0;23;5;6;182;606;15;7;195;761;4;234;430;14;8;0;5;3;6;457;11;9;113;462;4;135;356;10
27.11.18;13:30:00;1;208;3391;0;2;0;10;6;4;441;9;3;0;4;6;2;516;12;4;0;0;3;0;205;5;5;7;84;4;1;3;440;695;18;6;0;0;23;7;6;292;609;15;7;230;745;4;263;438;14;8;0;4;6;2;497;11;9;130;452;4;154;355;10
27.11.18;13:25:00;1;211;3374;0;2;1;10;6;5;438;9;3;1;4;6;4;516;12;4;0;0;3;0;222;5;5;9;84;4;1;3;439;701;19;6;0;0;1;6;4;482;612;15;7;246;726;4;287;436;14;8;0;4;6;2;498;11;9;143;442;4;168;362;10
27.11.18;13:20:00;1;210;3356;0;2;1;10;6;4;445;9;3;2;4;6;6;501;12;4;0;0;3;0;230;5;5;7;83;4;1;3;445;718;19;6;0;0;1;3;2;489;616;15;7;303;705;4;331;420;14;8;3;4;6;8;482;11;9;177;430;4;201;355;10
27.11.18;13:15:00;1;209;3338;0;2;0;10;6;0;467;8;3;1;4;6;4;533;12;4;0;0;3;0;238;5;5;72;82;4;16;18;391;627;19;6;0;0;23;9;4;459;625;16;7;385;680;4;425;439;14;8;0;4;6;5;515;11;9;235;415;4;261;359;10
27.11.18;13:10:00;1;206;3321;0;2;7;10;3;14;432;8;3;1;4;6;4;542;12;4;0;0;3;0;229;5;5;73;76;4;18;23;391;627;19;6;0;0;23;6;3;518;628;16;7;439;648;4;477;455;14;8;1;4;6;4;524;11;9;273;395;4;302;358;10
27.11.18;13:05:00;1;224;3304;0;2;5;9;6;8;447;8;3;2;4;4;5;540;12;4;0;0;3;0;223;5;5;77;70;4;22;29;391;627;19;6;0;0;23;7;3;552;629;15;7;458;612;4;498;466;14;8;4;4;4;8;522;11;9;287;373;4;316;361;10
27.11.18;13:00:00;1;249;3285;0;2;3;9;6;7;450;8;3;1;4;6;4;540;12;4;0;0;3;0;219;5;5;71;63;4;20;24;391;627;19;6;0;0;8;6;3;470;626;15;7;433;574;4;463;455;14;8;7;3;6;11;499;11;9;269;349;4;299;358;10
27.11.18;12:55:00;1;251;3264;0;2;4;8;6;8;445;8;3;2;4;6;5;537;12;4;0;0;3;0;232;5;5;74;57;4;18;25;391;627;19;6;0;0;8;7;3;432;626;15;7;426;537;4;457;436;14;8;2;3;6;5;518;11;9;267;326;4;296;357;10
27.11.18;12:50:00;1;265;3243;0;2;4;8;6;8;446;8;3;0;3;6;5;540;12;4;0;0;3;0;234;5;5;77;51;4;24;29;391;627;18;6;0;0;23;6;3;498;627;15;7;451;502;4;480;426;14;8;2;3;6;9;522;11;9;288;304;4;318;359;10
27.11.18;12:45:00;1;209;3223;0;2;0;8;6;0;469;8;3;2;3;6;5;535;12;4;0;0;3;0;234;5;5;77;44;4;23;27;391;627;18;6;0;0;8;8;3;450;627;15;7;430;464;4;468;431;14;8;9;3;6;18;490;11;9;289;280;4;315;356;10
27.11.18;12:40:00;1;208;3205;0;2;6;8;3;14;430;8;3;1;3;6;4;543;12;4;0;0;3;0;218;5;5;74;38;4;21;26;391;627;17;6;0;0;8;10;5;502;625;15;7;412;428;4;451;420;14;8;3;2;6;5;525;11;9;277;256;4;307;359;10
27.11.18;12:35:00;1;207;3188;0;2;3;7;6;7;444;8;3;2;3;4;4;534;12;4;0;0;3;0;211;4;5;29;32;4;8;13;432;697;17;6;0;0;8;9;4;487;623;14;7;307;394;4;340;333;11;8;1;2;4;9;515;11;9;269;233;4;297;354;10
27.11.18;12:30:00;1;208;3171;0;2;4;7;6;11;429;8;3;3;3;3;7;507;12;4;0;0;3;0;225;4;5;18;30;1;5;8;441;714;17;6;0;0;8;8;6;544;619;14;7;368;362;4;394;433;13;8;3;1;3;9;498;11;9;247;211;4;273;358;10
27.11.18;12:25:00;1;211;3153;0;2;2;6;6;6;441;8;3;2;3;6;4;530;12;4;0;0;1;0;240;4;5;18;29;1;3;4;445;724;17;6;0;0;8;10;6;465;619;14;7;345;331;4;377;439;13;8;2;1;6;5;513;11;9;239;190;4;267;357;9